Regional Weather Roundup
Issued by NWS

Home | Current Version | Previous Version | Graphics & Text | Print | Product List | Glossary On
Versions: 1 2 3 4 5 6 7 8 9 10 11 12 13 14 15 16 17 18 19 20 21 22 23 24 25 26 27 28 29 30 31 32 33 34 35 36 37 38 39 40 41 42 43 44 45 46 47 48 49 50
000
ASUS44 KMEG 302300
RWRTN
TENNESSEE HOURLY STATE WEATHER ROUNDUP
NATIONAL WEATHER SERVICE MEMPHIS TN
600 PM CDT SAT AUG 30 2014

TNZ002-004-019-021-049-052-054-088>092-310000-
WEST TENNESSEE

CITY           SKY/WX    TMP DP  RH WIND       PRES   REMARKS
MEMPHIS INTL   LGT RAIN  77  74  90 S6        30.02R
NWS MEMPHIS      N/A     77 N/A N/A MISG        N/A
JACKSON        CLOUDY    78  74  87 S3        30.03R
DYERSBURG      CLOUDY    75  64  69 CALM      30.01S
UNION CITY     SUNNY     73  72  94 SE5       30.00S
PARIS          CLOUDY    72  72 100 CALM      30.04R
SAVANNAH       PTSUNNY   79  75  89 W3        30.04S
$$

TNZ008-025-027-028-033-062-065-066-310000-
NORTH MIDDLE TENNESSEE

CITY           SKY/WX    TMP DP  RH WIND       PRES   REMARKS
NASHVILLE      CLOUDY    77  71  82 NE6       30.04R
CLARKSVILLE    CLOUDY    77  72  84 E3        30.04R
COOKEVILLE     CLOUDY    73  73 100 W3        30.07R
CROSSVILLE     CLOUDY    80  68  66 CALM      30.12R
$$

TNZ061-075-076-078-094-096-097-310000-
SOUTH MIDDLE TENNESSEE

CITY           SKY/WX    TMP DP  RH WIND       PRES   REMARKS
WINCHESTER     MOSUNNY   79  73  83 S5        30.06R
SHELBYVILLE    CLOUDY    73  73 100 CALM      30.06S
$$

TNZ017-018-042-046-047-310000-
NORTHEAST TENNESSEE

CITY           SKY/WX    TMP DP  RH WIND       PRES   REMARKS
TRI CITIES     CLOUDY    84  64  50 S3        30.11S
ELIZABETHTON   PTCLDY    82  63  51 E6        30.13R
$$

TNZ012-013-036-069-073-074-310000-
CENTRAL EAST TENNESSEE

CITY           SKY/WX    TMP DP  RH WIND       PRES   REMARKS
KNOXVILLE      PTSUNNY   79  73  82 NE3       30.06F
OAK RIDGE      PTSUNNY   80  73  79 CALM      30.09R
GATLINBURG     PTCLDY    77  72  83 NE5       30.07S
$$

TNZ083-085-099-310000-
SOUTHEAST TENNESSEE

CITY           SKY/WX    TMP DP  RH WIND       PRES   REMARKS
CHATTANOOGA    PTSUNNY   85  71  63 SW6       30.05R THUNDER HX  90
$$

SKY/WX REPORTED AS FAIR MEANS FEW OR NO CLOUDS BELOW
12 THOUSAND FEET.




USA.gov is the U.S. government's official web portal to all federal, state and local government web resources and services.